Regional Weather Roundup
Issued by NWS

Home | Current Version | Previous Version | Text Only | Print | Product List | Glossary On
Versions: 1 2 3 4 5 6 7 8 9 10 11 12 13 14 15 16 17 18 19 20 21 22 23 24 25 26 27 28 29 30 31 32 33 34 35 36 37 38 39 40 41 42 43 44 45 46 47 48 49 50
000
ASUS43 KBIS 211131
RWRND
NORTH DAKOTA REGIONAL WEATHER ROUNDUP
NATIONAL WEATHER SERVICE EASTERN NORTH DAKOTA/GRAND FORKS ND
600 AM CDT SAT APR 21 2018

  NOTE: "FAIR" INDICATES FEW OR NO CLOUDS BELOW 12,000 FEET WITH NO
  SIGNIFICANT WEATHER AND/OR OBSTRUCTIONS TO VISIBILITY.

NDZ001>003-009>011-017-211200-
...NORTHWEST NORTH DAKOTA...

CITY           SKY/WX    TMP DP  RH WIND       PRES   REMARKS
WILLISTON      FAIR      40  36  86 S6        30.15R
MINOT          MOCLDY    42  35  76 S7        30.20S
MINOT AFB      CLOUDY    41  36  81 S9        30.19S
$$

NDZ018>021-031>035-040>046-211200-
...SOUTHWEST NORTH DAKOTA...

CITY           SKY/WX    TMP DP  RH WIND       PRES   REMARKS
BISMARCK       FAIR      36  34  92 SE3       30.27S
DICKINSON      CLOUDY    40  37  89 S25G35    30.17S WCI  29
GARRISON         N/A     35  33  92 SW6       30.21F WCI  30
HETTINGER      FAIR      37  34  89 S13       30.22F WCI  29
$$

NDZ004>008-012>016-024-026-027-054-211200-
...NORTHEAST NORTH DAKOTA...

CITY           SKY/WX    TMP DP  RH WIND       PRES   REMARKS
GRAND FORKS    MOCLDY    33  33 100 S7        30.34R WCI  27
GRAND FORKS AF CLOUDY    35  35  99 S8        30.33R WCI  29
DEVILS LAKE    FAIR      32  30  92 CALM      30.30S
$$

NDZ022-023-025-028>030-036>039-047>053-211200-
...SOUTHEAST NORTH DAKOTA...

CITY           SKY/WX    TMP DP  RH WIND       PRES   REMARKS
JAMESTOWN      MOCLDY    33  32  96 CALM      30.31S
FARGO          FAIR      33  31  92 S7        30.36S WCI  27
WAHPETON       FAIR      32  30  93 SE6       30.38S WCI  26
$$



USA.gov is the U.S. government's official web portal to all federal, state and local government web resources and services.